Weather History for Aberdeen, SD

Change the Weather History Date:

Tuesday, November 20, 2012

  Actual Average Record
Temperature  
Mean Temperature 38 °F 27 °F  
Max Temperature 57 °F 37 °F 69 °F (1962)
Min Temperature 18 °F 17 °F -12 °F (1978)
Degree Days  
Heating Degree Days 27 38  
Month to date heating degree days 628 659  
Since 1 July heating degree days 1510 1550  
Cooling Degree Days 0 0  
Month to date cooling degree days 0 0  
Year to date cooling degree days 764 525  
Moisture  
Dew Point 23 °F    
Average Humidity 70    
Maximum Humidity 96    
Minimum Humidity 43    
Precipitation  
Precipitation 0.00 in 0.03 in 0.83 in (1953)
Month to date precipitation 0.37 0.53  
Year to date precipitation 13.88 21.00  
Snow  
Snow 0.00 in - - ()
Month to date snowfall 0.6  
Since 1 July snowfall 0.6  
Snow Depth 0.00 in    
Sea Level Pressure  
Sea Level Pressure 30.08 in    
Wind  
Wind Speed 8 mph (SSE)    
Max Wind Speed 25 mph    
Max Gust Speed 30 mph    
Visibility 6 miles    
Events Fog    
T = Trace of Precipitation, MM = Missing Value Source: NWS Daily Summary

Daily Weather History Graph

Daily Weather History Graph

Search for Another Location

Airport:

Trip Planner

Search our weather history database for the weather conditions in past years. The results will help you decide how hot, cold, wet, or windy it might be!

Date:

Astronomy

Nov. 20, 2012 Rise Set
Actual Time 7:40 AM CST 4:58 PM CST
Civil Twilight 7:07 AM CST 5:30 PM CST
Nautical Twilight 6:31 AM CST 6:07 PM CST
Astronomical Twilight 5:55 AM CST 6:42 PM CST
Moon 1:04 PM CST (11/20) No Moon Set
Length of Visible Light 10h 23m
Length of Day
9h 18m
First Quarter, 51% of the Moon is Illuminated
Nov 20
First Quarter
Nov 28
Full
Dec 6
Last Quarter
Dec 13
New
Dec 19
First Quarter

Hourly Weather History & Observations

Time (CST) Temp. Windchill Dew Point Humidity Pressure Visibility Wind Dir Wind Speed Gust Speed Precip Events Conditions
12:53 AM 21.9 °F - 18.0 °F 85% 30.21 in 10.0 mi Calm Calm - N/A   Clear
1:53 AM 21.2 °F - 17.6 °F 86% 30.15 in 9.0 mi Calm Calm - N/A   Clear
2:53 AM 21.9 °F - 19.0 °F 89% 30.18 in 10.0 mi Calm Calm - N/A   Clear
3:31 AM 19.4 °F 14.3 °F 17.6 °F 93% 30.14 in 1.8 mi SSE 3.5 mph - N/A   Partly Cloudy
3:34 AM 19.4 °F 14.3 °F 17.6 °F 93% 30.14 in 1.0 mi SSE 3.5 mph - N/A   Mist
3:44 AM 19.4 °F 11.5 °F 17.6 °F 93% 30.14 in 0.5 mi SSE 5.8 mph - N/A Fog Light Freezing Fog
3:53 AM 19.0 °F 13.9 °F 17.1 °F 92% 30.17 in 0.2 mi SE 3.5 mph - N/A Fog Light Freezing Fog
4:30 AM 19.4 °F 14.3 °F 17.6 °F 93% 30.12 in 1.0 mi South 3.5 mph - N/A   Mist
4:33 AM 19.4 °F 12.8 °F 17.6 °F 93% 30.12 in 2.0 mi South 4.6 mph - N/A   Mostly Cloudy
4:40 AM 19.4 °F 14.3 °F 17.6 °F 93% 30.12 in 5.0 mi SSE 3.5 mph - N/A   Mostly Cloudy
4:43 AM 19.4 °F 14.3 °F 17.6 °F 93% 30.12 in 1.5 mi SSE 3.5 mph - N/A   Mostly Cloudy
4:45 AM 19.4 °F 14.3 °F 17.6 °F 93% 30.12 in 1.0 mi SSE 3.5 mph - N/A   Mist
4:53 AM 19.0 °F 12.3 °F 17.1 °F 92% 30.17 in 1.2 mi South 4.6 mph - N/A   Scattered Clouds
4:56 AM 19.4 °F 12.8 °F 17.6 °F 93% 30.12 in 2.0 mi South 4.6 mph - N/A   Scattered Clouds
5:03 AM 19.4 °F 12.8 °F 15.8 °F 86% 30.12 in 8.0 mi South 4.6 mph - N/A   Scattered Clouds
5:53 AM 19.0 °F - 16.0 °F 88% 30.18 in 8.0 mi Calm Calm - N/A   Scattered Clouds
6:01 AM 19.4 °F - 15.8 °F 86% 30.13 in 6.0 mi Calm Calm - N/A   Mostly Cloudy
6:14 AM 19.4 °F 14.3 °F 15.8 °F 86% 30.12 in 1.5 mi SSE 3.5 mph - N/A   Overcast
6:16 AM 19.4 °F 14.3 °F 15.8 °F 86% 30.12 in 0.8 mi SSE 3.5 mph - N/A   Mist
6:26 AM 19.4 °F 11.5 °F 17.6 °F 93% 30.11 in 0.2 mi SSE 5.8 mph - N/A Fog Light Freezing Fog
6:53 AM 19.9 °F 13.4 °F 18.0 °F 92% 30.16 in 0.2 mi SE 4.6 mph - N/A Fog Light Freezing Fog
7:15 AM 19.4 °F 14.3 °F 17.6 °F 93% 30.11 in 0.2 mi SSE 3.5 mph - N/A Fog Light Freezing Fog
7:30 AM 21.2 °F 14.9 °F 17.6 °F 86% 30.10 in 0.2 mi SSE 4.6 mph - N/A Fog Light Freezing Fog
7:53 AM 23.0 °F 15.8 °F 21.0 °F 92% 30.15 in 0.2 mi South 5.8 mph - N/A Fog Light Freezing Fog
8:21 AM 23.0 °F - 19.4 °F 86% 30.10 in 1.0 mi Calm Calm - N/A   Mist
8:23 AM 23.0 °F - 19.4 °F 86% 30.10 in 2.0 mi Calm Calm - N/A   Mostly Cloudy
8:27 AM 23.0 °F - 19.4 °F 86% 30.10 in 3.0 mi Calm Calm - N/A   Scattered Clouds
8:53 AM 26.1 °F 20.5 °F 21.9 °F 84% 30.15 in 5.0 mi SE 4.6 mph - N/A   Clear
9:53 AM 34.0 °F 26.0 °F 30.0 °F 85% 30.14 in 9.0 mi SSE 10.4 mph - N/A   Clear
10:53 AM 44.1 °F 37.7 °F 33.1 °F 65% 30.11 in 10.0 mi SSE 12.7 mph - N/A   Clear
11:53 AM 50.0 °F - 32.0 °F 50% 30.06 in 10.0 mi SSE 20.7 mph 25.3 mph N/A   Clear
12:53 PM 54.0 °F - 32.0 °F 43% 30.01 in 10.0 mi SSE 21.9 mph 28.8 mph N/A   Clear
1:53 PM 55.9 °F - 33.1 °F 42% 29.99 in 10.0 mi South 19.6 mph 28.8 mph N/A   Clear
2:53 PM 55.9 °F - 34.0 °F 44% 29.97 in 10.0 mi South 16.1 mph - N/A   Clear
3:53 PM 55.9 °F - 35.1 °F 45% 29.96 in 10.0 mi South 8.1 mph - N/A   Clear
4:53 PM 48.9 °F - 34.0 °F 56% 29.96 in 10.0 mi South 10.4 mph - N/A   Clear
5:53 PM 44.1 °F 39.0 °F 32.0 °F 63% 29.98 in 10.0 mi South 9.2 mph - N/A   Clear
6:53 PM 45.0 °F 38.9 °F 33.1 °F 63% 29.97 in 10.0 mi SSE 12.7 mph - N/A   Clear
7:53 PM 46.0 °F 40.6 °F 33.1 °F 61% 29.94 in 10.0 mi SSE 11.5 mph - N/A   Clear
8:53 PM 39.0 °F 34.0 °F 30.9 °F 73% 29.95 in 10.0 mi SW 6.9 mph - N/A   Clear
9:53 PM 33.1 °F - 28.0 °F 82% 29.95 in 10.0 mi Calm Calm - N/A   Clear
10:53 PM 30.0 °F 23.2 °F 26.1 °F 85% 29.93 in 10.0 mi SSE 6.9 mph - N/A   Clear
11:53 PM 26.1 °F 19.4 °F 24.1 °F 92% 29.93 in 10.0 mi SE 5.8 mph - N/A   Clear